AAL2164 KPBI-KORD

Flight info

Callsign AAL2164
Flight time 2h 42m
Altitude 34000
Route TBIRD7 KPASA Q118 HEVAN BONNT VEECK5
Aircraft A321/M-SDE3FGHIRWY/LB1

Departure

Time 2026-04-20 19:57
Airport Palm Beach International Airport (KPBI)

Arrival

Time 2026-04-20 22:39
Airport Chicago O'Hare International Airport (KORD)
Time Latitude Longitude Altitude Speed Heading
2026-04-20 19:39 26.68648 -80.09282 15 ft 0 kts 318°
2026-04-20 19:43 26.68639 -80.09273 22 ft 4 kts 318°
2026-04-20 19:43 26.68618 -80.09252 25 ft 4 kts 318°
2026-04-20 19:44 26.68598 -80.09232 25 ft 4 kts 318°
2026-04-20 19:44 26.68581 -80.09215 24 ft 1 kts 318°
2026-04-20 19:44 26.68581 -80.09214 24 ft 0 kts 318°
2026-04-20 19:50 26.68584 -80.09219 23 ft 1 kts 306°
2026-04-20 19:50 26.68582 -80.09226 23 ft 2 kts 265°
2026-04-20 19:50 26.68565 -80.09257 22 ft 7 kts 228°
2026-04-20 19:51 26.68520 -80.09313 22 ft 12 kts 228°
2026-04-20 19:51 26.68448 -80.09382 22 ft 15 kts 194°
2026-04-20 19:51 26.68375 -80.09363 22 ft 8 kts 212°
2026-04-20 19:51 26.68371 -80.09436 22 ft 11 kts 272°
2026-04-20 19:52 26.68375 -80.09536 22 ft 15 kts 272°
2026-04-20 19:52 26.68381 -80.09661 22 ft 17 kts 272°
2026-04-20 19:52 26.68387 -80.09794 22 ft 18 kts 271°
2026-04-20 19:52 26.68392 -80.09934 22 ft 18 kts 272°
2026-04-20 19:53 26.68398 -80.10079 22 ft 19 kts 272°
2026-04-20 19:53 26.68406 -80.10231 22 ft 20 kts 273°
2026-04-20 19:53 26.68412 -80.10387 22 ft 21 kts 272°
2026-04-20 19:53 26.68419 -80.10549 21 ft 21 kts 272°
2026-04-20 19:54 26.68426 -80.10716 21 ft 22 kts 275°
2026-04-20 19:54 26.68426 -80.10802 21 ft 2 kts 251°
2026-04-20 19:54 26.68413 -80.10813 22 ft 3 kts 208°
2026-04-20 19:54 26.68391 -80.10819 21 ft 4 kts 193°
2026-04-20 19:55 26.68360 -80.10822 21 ft 5 kts 174°
2026-04-20 19:55 26.68329 -80.10799 21 ft 6 kts 130°
2026-04-20 19:55 26.68317 -80.10752 21 ft 7 kts 91°
2026-04-20 19:55 26.68317 -80.10748 21 ft 0 kts 91°
2026-04-20 19:56 26.68317 -80.10735 21 ft 7 kts 91°
2026-04-20 19:57 26.68304 -80.10475 22 ft 69 kts 94°
2026-04-20 19:57 26.68270 -80.09700 22 ft 131 kts 92°
2026-04-20 19:57 26.68202 -80.08492 59 ft 175 kts 96°
2026-04-20 19:57 26.68158 -80.07164 748 ft 168 kts 92°
2026-04-20 19:58 26.68153 -80.05840 1332 ft 176 kts 89°
2026-04-20 19:58 26.68449 -80.04455 1609 ft 195 kts 64°
2026-04-20 19:58 26.69148 -80.03055 1764 ft 218 kts 62°
2026-04-20 19:58 26.69912 -80.01483 1972 ft 241 kts 62°
2026-04-20 19:59 26.70782 -79.99782 2355 ft 260 kts 54°
2026-04-20 19:59 26.72055 -79.98326 3056 ft 265 kts 36°
2026-04-20 19:59 26.73688 -79.97347 3818 ft 269 kts 18°
2026-04-20 19:59 26.75548 -79.96945 4591 ft 271 kts
2026-04-20 20:00 26.77387 -79.97208 5328 ft 272 kts 339°
2026-04-20 20:00 26.79038 -79.98263 6062 ft 272 kts 316°
2026-04-20 20:00 26.80148 -79.99961 6793 ft 272 kts 292°
2026-04-20 20:00 26.80789 -80.01959 7514 ft 274 kts 288°
2026-04-20 20:01 26.81408 -80.03985 8259 ft 276 kts 288°
2026-04-20 20:01 26.82034 -80.06026 8980 ft 279 kts 288°
2026-04-20 20:01 26.82668 -80.08093 9711 ft 282 kts 288°
2026-04-20 20:01 26.83306 -80.10168 10190 ft 295 kts 289°
2026-04-20 20:02 26.84009 -80.12448 10340 ft 317 kts 289°
2026-04-20 20:02 26.84755 -80.14866 10461 ft 340 kts 289°
2026-04-20 20:02 26.85551 -80.17442 10634 ft 358 kts 289°
2026-04-20 20:02 26.86373 -80.20103 11125 ft 365 kts 289°
2026-04-20 20:03 26.87207 -80.22802 11734 ft 368 kts 289°
2026-04-20 20:03 26.88045 -80.25515 12366 ft 370 kts 289°
2026-04-20 20:03 26.88888 -80.28250 13005 ft 372 kts 289°
2026-04-20 20:03 26.89738 -80.30998 13669 ft 374 kts 291°
2026-04-20 20:04 26.90866 -80.33579 14219 ft 376 kts 302°
2026-04-20 20:04 26.92512 -80.35860 14761 ft 379 kts 315°
2026-04-20 20:04 26.94601 -80.37682 15313 ft 384 kts 327°
2026-04-20 20:04 26.97039 -80.38953 15857 ft 390 kts 336°
2026-04-20 20:05 26.99582 -80.40034 16404 ft 393 kts 336°
2026-04-20 20:05 27.02148 -80.41130 16943 ft 396 kts 336°
2026-04-20 20:05 27.04735 -80.42241 17474 ft 400 kts 336°
2026-04-20 20:05 27.07344 -80.43363 18010 ft 403 kts 335°
2026-04-20 20:06 27.09977 -80.44498 18500 ft 407 kts 335°
2026-04-20 20:06 27.12626 -80.45642 18967 ft 409 kts 335°
2026-04-20 20:06 27.15327 -80.46807 19440 ft 411 kts 335°
2026-04-20 20:06 27.17997 -80.47981 19920 ft 413 kts 334°
2026-04-20 20:07 27.20664 -80.49196 20387 ft 414 kts 334°
2026-04-20 20:07 27.23329 -80.50436 20834 ft 417 kts 333°
2026-04-20 20:07 27.26017 -80.51696 21284 ft 419 kts 333°
2026-04-20 20:07 27.28708 -80.52957 21730 ft 421 kts 333°
2026-04-20 20:08 27.30505 -80.53796 22015 ft 423 kts 333°
2026-04-20 20:08 27.34140 -80.55520 22576 ft 425 kts 332°
2026-04-20 20:08 27.35936 -80.56412 22859 ft 426 kts 331°
2026-04-20 20:08 27.38645 -80.57792 23284 ft 428 kts 331°
2026-04-20 20:09 27.41358 -80.59201 23681 ft 430 kts 330°
2026-04-20 20:09 27.44083 -80.60621 24043 ft 433 kts 330°
2026-04-20 20:09 27.46825 -80.62040 24389 ft 435 kts 330°
2026-04-20 20:09 27.49580 -80.63451 24723 ft 436 kts 330°
2026-04-20 20:10 27.52220 -80.65106 25061 ft 433 kts 321°
2026-04-20 20:10 27.54569 -80.67204 25386 ft 431 kts 314°
2026-04-20 20:10 27.56822 -80.69439 25721 ft 432 kts 314°
2026-04-20 20:10 27.59083 -80.71687 26060 ft 434 kts 314°
2026-04-20 20:11 27.61355 -80.73944 26402 ft 436 kts 314°
2026-04-20 20:11 27.63638 -80.76210 26747 ft 438 kts 314°
2026-04-20 20:11 27.65934 -80.78484 27091 ft 440 kts 314°
2026-04-20 20:11 27.68240 -80.80768 27428 ft 442 kts 314°
2026-04-20 20:12 27.70555 -80.83060 27788 ft 442 kts 314°
2026-04-20 20:12 27.72862 -80.85343 28255 ft 441 kts 314°
2026-04-20 20:12 27.75159 -80.87621 28717 ft 439 kts 314°
2026-04-20 20:13 27.79734 -80.92174 29612 ft 437 kts 313°
2026-04-20 20:13 27.82016 -80.94448 30010 ft 438 kts 314°
2026-04-20 20:13 27.84441 -80.96544 30356 ft 441 kts 319°
2026-04-20 20:13 27.86937 -80.98557 30725 ft 440 kts 318°
2026-04-20 20:14 27.89430 -81.00562 31087 ft 439 kts 318°
2026-04-20 20:14 27.91916 -81.02561 31460 ft 438 kts 318°
2026-04-20 20:14 27.94393 -81.04558 31821 ft 437 kts 318°
2026-04-20 20:14 27.96863 -81.06552 32188 ft 436 kts 318°
2026-04-20 20:15 27.99325 -81.08543 32548 ft 434 kts 318°
2026-04-20 20:15 28.01780 -81.10531 32904 ft 433 kts 317°
2026-04-20 20:15 28.04225 -81.12514 33261 ft 432 kts 317°
2026-04-20 20:15 28.06666 -81.14496 33605 ft 431 kts 317°
2026-04-20 20:16 28.08949 -81.16646 33963 ft 423 kts 308°
2026-04-20 20:16 28.10854 -81.19162 34039 ft 418 kts 301°
2026-04-20 20:16 28.13540 -81.24842 34057 ft 405 kts 282°
2026-04-20 20:17 28.14033 -81.27960 34059 ft 400 kts 271°
2026-04-20 20:17 28.14197 -81.31105 34056 ft 399 kts 271°
2026-04-20 20:17 28.14530 -81.37370 34066 ft 398 kts 271°
2026-04-20 20:18 28.14898 -81.43618 34061 ft 398 kts 272°
2026-04-20 20:18 28.15280 -81.49874 34069 ft 398 kts 272°
2026-04-20 20:19 28.15652 -81.56131 34073 ft 398 kts 272°
2026-04-20 20:19 28.16016 -81.62404 34077 ft 398 kts 271°
2026-04-20 20:20 28.16370 -81.68623 34085 ft 398 kts 272°
2026-04-20 20:20 28.16726 -81.74880 34091 ft 397 kts 272°
2026-04-20 20:21 28.17082 -81.81166 34099 ft 397 kts 272°
2026-04-20 20:21 28.17807 -81.87354 34096 ft 401 kts 284°
2026-04-20 20:22 28.18933 -81.90218 34096 ft 407 kts 296°
2026-04-20 20:22 28.20654 -81.92806 34095 ft 417 kts 308°
2026-04-20 20:22 28.25346 -81.96866 34096 ft 428 kts 317°
2026-04-20 20:23 28.30236 -82.00722 34094 ft 428 kts 317°
2026-04-20 20:23 28.35123 -82.04594 34089 ft 428 kts 317°
2026-04-20 20:24 28.40006 -82.08476 34090 ft 428 kts 317°
2026-04-20 20:24 28.44892 -82.12352 34122 ft 428 kts 316°
2026-04-20 20:25 28.49762 -82.16211 34115 ft 426 kts 316°
2026-04-20 20:25 28.54603 -82.20064 34102 ft 424 kts 316°
2026-04-20 20:26 28.59417 -82.23911 34103 ft 423 kts 316°
2026-04-20 20:26 28.64229 -82.27757 34102 ft 423 kts 316°
2026-04-20 20:27 28.69045 -82.31596 34097 ft 422 kts 316°
2026-04-20 20:27 28.73852 -82.35438 34093 ft 422 kts 316°
2026-04-20 20:28 28.78611 -82.39245 34088 ft 414 kts 315°
2026-04-20 20:28 28.83315 -82.43005 34090 ft 412 kts 315°
2026-04-20 20:29 28.88005 -82.46777 34092 ft 412 kts 315°
2026-04-20 20:29 28.92691 -82.50550 34104 ft 412 kts 315°
2026-04-20 20:30 28.97373 -82.54314 34103 ft 412 kts 315°
2026-04-20 20:30 29.02057 -82.58085 34100 ft 412 kts 315°
2026-04-20 20:31 29.06740 -82.61854 34129 ft 412 kts 315°
2026-04-20 20:31 29.11417 -82.65626 34120 ft 411 kts 315°
2026-04-20 20:32 29.16089 -82.69396 34107 ft 411 kts 315°
2026-04-20 20:32 29.20751 -82.73172 34102 ft 410 kts 315°
2026-04-20 20:33 29.25413 -82.76945 34091 ft 410 kts 315°
2026-04-20 20:33 29.30071 -82.80720 34103 ft 410 kts 315°
2026-04-20 20:34 29.34719 -82.84501 34144 ft 409 kts 315°
2026-04-20 20:34 29.39349 -82.88266 34102 ft 407 kts 316°
2026-04-20 20:35 29.43974 -82.92025 34096 ft 407 kts 316°
2026-04-20 20:35 29.48600 -82.95792 34095 ft 408 kts 316°
2026-04-20 20:36 29.53514 -82.99173 34109 ft 423 kts 328°
2026-04-20 20:36 29.58956 -83.01758 34115 ft 423 kts 328°
2026-04-20 20:37 29.64407 -83.04340 34117 ft 424 kts 328°
2026-04-20 20:37 29.69854 -83.06929 34140 ft 424 kts 327°
2026-04-20 20:38 29.75304 -83.09538 34133 ft 424 kts 327°
2026-04-20 20:38 29.80757 -83.12148 34129 ft 425 kts 327°
2026-04-20 20:39 29.86215 -83.14754 34127 ft 425 kts 327°
2026-04-20 20:39 29.91672 -83.17364 34139 ft 425 kts 327°
2026-04-20 20:40 29.97124 -83.19975 34129 ft 422 kts 327°
2026-04-20 20:40 30.02525 -83.22580 34119 ft 421 kts 327°
2026-04-20 20:41 30.07924 -83.25191 34123 ft 422 kts 327°
2026-04-20 20:41 30.13346 -83.27797 34148 ft 422 kts 327°
2026-04-20 20:42 30.18771 -83.30408 34151 ft 422 kts 327°
2026-04-20 20:42 30.24195 -83.33025 34191 ft 422 kts 327°
2026-04-20 20:43 30.29618 -83.35649 34177 ft 422 kts 327°
2026-04-20 20:43 30.35044 -83.38268 34179 ft 422 kts 327°
2026-04-20 20:44 30.40467 -83.40887 34177 ft 422 kts 327°
2026-04-20 20:44 30.45886 -83.43514 34178 ft 422 kts 327°
2026-04-20 20:45 30.51306 -83.46141 34187 ft 422 kts 327°
2026-04-20 20:45 30.56716 -83.48770 34182 ft 422 kts 327°
2026-04-20 20:46 30.62131 -83.51406 34188 ft 422 kts 327°
2026-04-20 20:46 30.67543 -83.54041 34183 ft 422 kts 327°
2026-04-20 20:47 30.72957 -83.56676 34183 ft 422 kts 327°
2026-04-20 20:47 30.78375 -83.59315 34190 ft 422 kts 327°
2026-04-20 20:48 30.83790 -83.61969 34223 ft 422 kts 326°
2026-04-20 20:48 30.89211 -83.64629 34216 ft 423 kts 326°
2026-04-20 20:49 30.94636 -83.67288 34209 ft 424 kts 326°
2026-04-20 20:49 31.00074 -83.69953 34209 ft 424 kts 326°
2026-04-20 20:50 31.05519 -83.72616 34211 ft 424 kts 326°
2026-04-20 20:50 31.10045 -83.74840 34237 ft 424 kts 326°
2026-04-20 20:51 31.15485 -83.77524 34223 ft 425 kts 326°
2026-04-20 20:51 31.20923 -83.80204 34217 ft 425 kts 326°
2026-04-20 20:52 31.26368 -83.82892 34213 ft 425 kts 326°
2026-04-20 20:52 31.31809 -83.85582 34211 ft 424 kts 326°
2026-04-20 20:53 31.37250 -83.88274 34208 ft 425 kts 326°
2026-04-20 20:53 31.42694 -83.90965 34211 ft 424 kts 326°
2026-04-20 20:54 31.48129 -83.93658 34240 ft 424 kts 326°
2026-04-20 20:54 31.53712 -83.96049 34238 ft 439 kts 336°
2026-04-20 20:55 31.59747 -83.97397 34235 ft 442 kts 338°
2026-04-20 20:55 31.65782 -83.98728 34259 ft 442 kts 338°
2026-04-20 20:56 31.71815 -84.00062 34221 ft 440 kts 337°
2026-04-20 20:56 31.77838 -84.01405 34222 ft 441 kts 337°
2026-04-20 20:57 31.83870 -84.02755 34226 ft 441 kts 337°
2026-04-20 20:57 31.89902 -84.04107 34228 ft 442 kts 337°
2026-04-20 20:58 31.95940 -84.05455 34215 ft 441 kts 337°
2026-04-20 20:58 32.01962 -84.06796 34193 ft 440 kts 337°
2026-04-20 20:59 32.07980 -84.08151 34189 ft 440 kts 337°
2026-04-20 20:59 32.14005 -84.09507 34203 ft 441 kts 337°
2026-04-20 21:00 32.20045 -84.10855 34201 ft 442 kts 337°
2026-04-20 21:00 32.26080 -84.12210 34212 ft 441 kts 338°
2026-04-20 21:01 32.32110 -84.13574 34213 ft 442 kts 338°
2026-04-20 21:01 32.38152 -84.14932 34222 ft 442 kts 338°
2026-04-20 21:02 32.44195 -84.16293 34224 ft 442 kts 338°
2026-04-20 21:02 32.50245 -84.17666 34243 ft 443 kts 338°
2026-04-20 21:03 32.56279 -84.19036 34227 ft 442 kts 338°
2026-04-20 21:03 32.62318 -84.20402 34234 ft 442 kts 338°
2026-04-20 21:04 32.68367 -84.21776 34247 ft 442 kts 338°
2026-04-20 21:04 32.74409 -84.23149 34249 ft 442 kts 338°
2026-04-20 21:05 32.80432 -84.24522 34237 ft 439 kts 337°
2026-04-20 21:05 32.86427 -84.25884 34236 ft 439 kts 337°
2026-04-20 21:06 32.92435 -84.27252 34238 ft 439 kts 337°
2026-04-20 21:06 32.98434 -84.28628 34246 ft 440 kts 337°
2026-04-20 21:07 33.04439 -84.30018 34282 ft 438 kts 336°
2026-04-20 21:07 33.10378 -84.31375 34239 ft 434 kts 336°
2026-04-20 21:08 33.16308 -84.32725 34251 ft 434 kts 336°
2026-04-20 21:08 33.22237 -84.34092 34261 ft 434 kts 336°
2026-04-20 21:09 33.28168 -84.35473 34280 ft 434 kts 336°
2026-04-20 21:09 33.34105 -84.36840 34287 ft 435 kts 336°
2026-04-20 21:10 33.40045 -84.38203 34256 ft 434 kts 336°
2026-04-20 21:10 33.45981 -84.39573 34246 ft 434 kts 336°
2026-04-20 21:11 33.51906 -84.40946 34245 ft 434 kts 336°
2026-04-20 21:11 33.57833 -84.42328 34273 ft 434 kts 336°
2026-04-20 21:12 33.63709 -84.43691 34236 ft 432 kts 336°
2026-04-20 21:12 33.69670 -84.45025 34237 ft 434 kts 337°
2026-04-20 21:13 33.75622 -84.46314 34243 ft 434 kts 337°
2026-04-20 21:13 33.81568 -84.47610 34244 ft 435 kts 337°
2026-04-20 21:14 33.87521 -84.48924 34259 ft 434 kts 338°
2026-04-20 21:14 33.93468 -84.50238 34267 ft 435 kts 338°
2026-04-20 21:15 33.99423 -84.51547 34266 ft 436 kts 338°
2026-04-20 21:15 34.05468 -84.52609 34270 ft 444 kts 343°
2026-04-20 21:16 34.11628 -84.53256 34279 ft 445 kts 344°
2026-04-20 21:16 34.17776 -84.53889 34251 ft 443 kts 343°
2026-04-20 21:17 34.23929 -84.54529 34253 ft 444 kts 343°
2026-04-20 21:17 34.30087 -84.55171 34261 ft 444 kts 343°
2026-04-20 21:18 34.36249 -84.55822 34295 ft 445 kts 344°
2026-04-20 21:18 34.42412 -84.56475 34283 ft 445 kts 344°
2026-04-20 21:19 34.48575 -84.57127 34265 ft 444 kts 344°
2026-04-20 21:20 34.57815 -84.58096 34269 ft 444 kts 344°
2026-04-20 21:20 34.63972 -84.58747 34266 ft 443 kts 343°
2026-04-20 21:21 34.70097 -84.59393 34256 ft 442 kts 343°
2026-04-20 21:21 34.76222 -84.60042 34255 ft 442 kts 343°
2026-04-20 21:22 34.82347 -84.60696 34256 ft 442 kts 343°
2026-04-20 21:22 34.88474 -84.61352 34304 ft 442 kts 343°
2026-04-20 21:23 34.94600 -84.62002 34282 ft 442 kts 343°
2026-04-20 21:23 35.00725 -84.62651 34272 ft 442 kts 343°
2026-04-20 21:24 35.06847 -84.63308 34273 ft 442 kts 343°
2026-04-20 21:24 35.12965 -84.63959 34316 ft 442 kts 343°
2026-04-20 21:25 35.19074 -84.64602 34251 ft 439 kts 343°
2026-04-20 21:25 35.25161 -84.65263 34250 ft 439 kts 343°
2026-04-20 21:26 35.31253 -84.65927 34253 ft 439 kts 343°
2026-04-20 21:26 35.37339 -84.66583 34257 ft 440 kts 343°
2026-04-20 21:27 35.43416 -84.67233 34258 ft 435 kts 342°
2026-04-20 21:27 35.49432 -84.67880 34260 ft 434 kts 342°
2026-04-20 21:28 35.55447 -84.68542 34260 ft 434 kts 342°
2026-04-20 21:28 35.61472 -84.69194 34272 ft 435 kts 342°
2026-04-20 21:29 35.67504 -84.69843 34300 ft 435 kts 343°
2026-04-20 21:29 35.73539 -84.70499 34296 ft 435 kts 342°
2026-04-20 21:30 35.78553 -84.71050 34291 ft 436 kts 343°
2026-04-20 21:30 35.84593 -84.71707 34286 ft 436 kts 343°
2026-04-20 21:31 35.90634 -84.72365 34296 ft 436 kts 343°
2026-04-20 21:31 35.96674 -84.73029 34296 ft 436 kts 343°
2026-04-20 21:32 36.02714 -84.73686 34296 ft 436 kts 343°
2026-04-20 21:32 36.08758 -84.74346 34291 ft 436 kts 343°
2026-04-20 21:33 36.14799 -84.75011 34333 ft 436 kts 343°
2026-04-20 21:33 36.20818 -84.75675 34277 ft 433 kts 343°
2026-04-20 21:34 36.26825 -84.76340 34274 ft 434 kts 343°
2026-04-20 21:34 36.32842 -84.77003 34277 ft 434 kts 343°
2026-04-20 21:35 36.38869 -84.77660 34325 ft 435 kts 343°
2026-04-20 21:35 36.44965 -84.77964 34314 ft 444 kts 350°
2026-04-20 21:36 36.51150 -84.77789 34313 ft 445 kts 350°
2026-04-20 21:36 36.57308 -84.77613 34306 ft 445 kts 350°
2026-04-20 21:37 36.63500 -84.77432 34357 ft 445 kts 350°
2026-04-20 21:37 36.69679 -84.77240 34286 ft 443 kts 351°
2026-04-20 21:38 36.75840 -84.77053 34286 ft 443 kts 351°
2026-04-20 21:38 36.82004 -84.76884 34282 ft 443 kts 351°
2026-04-20 21:39 36.88176 -84.76712 34321 ft 444 kts 351°
2026-04-20 21:39 36.94356 -84.76524 34308 ft 444 kts 351°
2026-04-20 21:40 37.00542 -84.76341 34302 ft 445 kts 351°
2026-04-20 21:40 37.06725 -84.76156 34295 ft 445 kts 351°
2026-04-20 21:41 37.12918 -84.75979 34340 ft 445 kts 351°
2026-04-20 21:41 37.19089 -84.75793 34267 ft 442 kts 351°
2026-04-20 21:42 37.25246 -84.75615 34267 ft 443 kts 351°
2026-04-20 21:42 37.31415 -84.75439 34262 ft 444 kts 351°
2026-04-20 21:43 37.37597 -84.75245 34301 ft 445 kts 351°
2026-04-20 21:43 37.43748 -84.75037 34287 ft 445 kts 351°
2026-04-20 21:44 37.49976 -84.74831 34282 ft 445 kts 351°
2026-04-20 21:44 37.56129 -84.74635 34279 ft 445 kts 351°
2026-04-20 21:45 37.62322 -84.74434 34268 ft 445 kts 351°
2026-04-20 21:45 37.68472 -84.74224 34247 ft 442 kts 351°
2026-04-20 21:46 37.74624 -84.74021 34246 ft 442 kts 351°
2026-04-20 21:46 37.80779 -84.73839 34239 ft 443 kts 351°
2026-04-20 21:47 37.86988 -84.73654 34269 ft 444 kts 351°
2026-04-20 21:47 37.93171 -84.73463 34254 ft 445 kts 351°
2026-04-20 21:48 37.99359 -84.73269 34252 ft 445 kts 351°
2026-04-20 21:48 38.05552 -84.73070 34250 ft 445 kts 351°
2026-04-20 21:49 38.11746 -84.72878 34241 ft 445 kts 351°
2026-04-20 21:49 38.17891 -84.72698 34225 ft 445 kts 351°
2026-04-20 21:50 38.24081 -84.72512 34225 ft 445 kts 351°
2026-04-20 21:50 38.30273 -84.72312 34225 ft 446 kts 351°
2026-04-20 21:51 38.36472 -84.72110 34224 ft 446 kts 351°
2026-04-20 21:51 38.42690 -84.71907 34240 ft 446 kts 351°
2026-04-20 21:52 38.48712 -84.72609 34223 ft 424 kts 335°
2026-04-20 21:52 38.54197 -84.75034 34267 ft 416 kts 330°
2026-04-20 21:53 38.59639 -84.77564 34228 ft 415 kts 330°
2026-04-20 21:53 38.65077 -84.80079 34222 ft 416 kts 330°
2026-04-20 21:54 38.70519 -84.82601 34222 ft 416 kts 330°
2026-04-20 21:54 38.75961 -84.85130 34220 ft 416 kts 330°
2026-04-20 21:55 38.81389 -84.87669 34205 ft 413 kts 331°
2026-04-20 21:55 38.86773 -84.90177 34194 ft 412 kts 331°
2026-04-20 21:56 38.92165 -84.92693 34195 ft 412 kts 331°
2026-04-20 21:56 38.97559 -84.95218 34201 ft 413 kts 330°
2026-04-20 21:57 39.02959 -84.97744 34244 ft 413 kts 331°
2026-04-20 21:57 39.08366 -85.00281 34235 ft 413 kts 331°
2026-04-20 21:58 39.13769 -85.02823 34229 ft 413 kts 331°
2026-04-20 21:58 39.19174 -85.05361 34217 ft 414 kts 331°
2026-04-20 21:59 39.24572 -85.07907 34227 ft 413 kts 331°
2026-04-20 21:59 39.29947 -85.10439 34211 ft 409 kts 331°
2026-04-20 22:00 39.35280 -85.12975 34206 ft 409 kts 331°
2026-04-20 22:00 39.40626 -85.15517 34207 ft 410 kts 331°
2026-04-20 22:01 39.45984 -85.18054 34211 ft 410 kts 332°
2026-04-20 22:01 39.51347 -85.20596 34257 ft 411 kts 332°
2026-04-20 22:02 39.56714 -85.23150 34251 ft 411 kts 332°
2026-04-20 22:02 39.62080 -85.25711 34242 ft 411 kts 332°
2026-04-20 22:03 39.67449 -85.28275 34243 ft 411 kts 332°
2026-04-20 22:03 39.72814 -85.30846 34247 ft 412 kts 332°
2026-04-20 22:04 39.78189 -85.33419 34201 ft 412 kts 332°
2026-04-20 22:04 39.83571 -85.35996 34196 ft 412 kts 332°
2026-04-20 22:05 39.88959 -85.38581 34199 ft 413 kts 332°
2026-04-20 22:05 39.94345 -85.41191 34256 ft 413 kts 332°
2026-04-20 22:06 39.99733 -85.43800 34241 ft 412 kts 333°
2026-04-20 22:06 40.05103 -85.46383 34247 ft 410 kts 333°
2026-04-20 22:07 40.10438 -85.48955 34251 ft 408 kts 333°
2026-04-20 22:07 40.15759 -85.51533 34244 ft 407 kts 333°
2026-04-20 22:08 40.21057 -85.54113 34234 ft 404 kts 332°
2026-04-20 22:08 40.26323 -85.56685 34232 ft 404 kts 332°
2026-04-20 22:09 40.31593 -85.59250 34236 ft 404 kts 332°
2026-04-20 22:09 40.36859 -85.61815 34247 ft 404 kts 332°
2026-04-20 22:10 40.42130 -85.64393 34253 ft 404 kts 332°
2026-04-20 22:10 40.47394 -85.66974 34235 ft 404 kts 332°
2026-04-20 22:11 40.52727 -85.69372 34241 ft 408 kts 336°
2026-04-20 22:11 40.58219 -85.71338 34241 ft 410 kts 338°
2026-04-20 22:12 40.63738 -85.73230 34250 ft 410 kts 337°
2026-04-20 22:12 40.68314 -85.74868 34244 ft 410 kts 337°
2026-04-20 22:13 40.73801 -85.76893 34252 ft 409 kts 336°
2026-04-20 22:13 40.79318 -85.78953 34254 ft 409 kts 336°
2026-04-20 22:14 40.84449 -85.81816 34282 ft 394 kts 320°
2026-04-20 22:14 40.86524 -85.84129 34270 ft 388 kts 309°
2026-04-20 22:14 40.88181 -85.86909 34257 ft 384 kts 300°
2026-04-20 22:15 40.90455 -85.93277 34248 ft 384 kts 292°
2026-04-20 22:15 40.92573 -85.99776 34246 ft 385 kts 293°
2026-04-20 22:16 40.94676 -86.06251 34250 ft 386 kts 292°
2026-04-20 22:16 40.96798 -86.12824 34254 ft 386 kts 292°
2026-04-20 22:17 40.98908 -86.19363 34241 ft 386 kts 293°
2026-04-20 22:17 41.01021 -86.25894 34250 ft 386 kts 293°
2026-04-20 22:18 41.03126 -86.32419 34255 ft 386 kts 293°
2026-04-20 22:18 41.05223 -86.38968 33994 ft 385 kts 293°
2026-04-20 22:18 41.06249 -86.42187 33724 ft 383 kts 293°
2026-04-20 22:19 41.07283 -86.45432 33462 ft 382 kts 293°
2026-04-20 22:19 41.08316 -86.48665 33238 ft 380 kts 293°
2026-04-20 22:19 41.09348 -86.51889 32981 ft 380 kts 293°
2026-04-20 22:19 41.10375 -86.55108 32719 ft 378 kts 293°
2026-04-20 22:20 41.11394 -86.58316 32436 ft 376 kts 294°
2026-04-20 22:20 41.12412 -86.61503 32179 ft 374 kts 295°
2026-04-20 22:20 41.13642 -86.64573 31926 ft 372 kts 299°
2026-04-20 22:20 41.14900 -86.67569 31273 ft 373 kts 299°
2026-04-20 22:21 41.16171 -86.70598 30359 ft 376 kts 299°
2026-04-20 22:21 41.17421 -86.73577 29479 ft 373 kts 299°
2026-04-20 22:21 41.18700 -86.76632 28381 ft 374 kts 299°
2026-04-20 22:21 41.19962 -86.79647 27432 ft 373 kts 299°
2026-04-20 22:22 41.21222 -86.82661 26396 ft 374 kts 299°
2026-04-20 22:22 41.22462 -86.85633 25412 ft 375 kts 299°
2026-04-20 22:22 41.23742 -86.88701 24681 ft 370 kts 299°
2026-04-20 22:22 41.24979 -86.91671 23974 ft 365 kts 299°
2026-04-20 22:23 41.26183 -86.94570 23193 ft 360 kts 299°
2026-04-20 22:23 41.27376 -86.97448 22505 ft 351 kts 299°
2026-04-20 22:23 41.28544 -87.00267 21836 ft 344 kts 299°
2026-04-20 22:23 41.29688 -87.03028 21174 ft 338 kts 299°
2026-04-20 22:24 41.30812 -87.05744 20524 ft 332 kts 299°
2026-04-20 22:24 41.31930 -87.08456 19877 ft 328 kts 299°
2026-04-20 22:24 41.33020 -87.11102 19238 ft 325 kts 299°
2026-04-20 22:24 41.34089 -87.13696 18622 ft 322 kts 299°
2026-04-20 22:25 41.35178 -87.16328 17947 ft 320 kts 299°
2026-04-20 22:25 41.36354 -87.18829 17208 ft 320 kts 306°
2026-04-20 22:25 41.37877 -87.21012 16516 ft 322 kts 315°
2026-04-20 22:25 41.39550 -87.22975 15956 ft 319 kts 315°
2026-04-20 22:26 41.41194 -87.24927 15423 ft 315 kts 315°
2026-04-20 22:26 41.42799 -87.26848 14901 ft 314 kts 315°
2026-04-20 22:26 41.44439 -87.28822 14374 ft 314 kts 315°
2026-04-20 22:27 41.47684 -87.32733 13255 ft 315 kts 315°
2026-04-20 22:27 41.49304 -87.34684 12700 ft 312 kts 315°
2026-04-20 22:27 41.50977 -87.36483 12336 ft 302 kts 323°
2026-04-20 22:27 41.52671 -87.37970 12204 ft 282 kts 323°
2026-04-20 22:28 41.54236 -87.39360 12092 ft 265 kts 323°
2026-04-20 22:28 41.55747 -87.40716 11833 ft 254 kts 322°
2026-04-20 22:28 41.57186 -87.42016 11385 ft 252 kts 323°
2026-04-20 22:28 41.58632 -87.43323 10985 ft 249 kts 323°
2026-04-20 22:29 41.60077 -87.44632 10854 ft 253 kts 323°
2026-04-20 22:29 41.61541 -87.45954 10737 ft 255 kts 323°
2026-04-20 22:29 41.63031 -87.47296 10626 ft 255 kts 323°
2026-04-20 22:29 41.64487 -87.48604 10510 ft 255 kts 323°
2026-04-20 22:30 41.66065 -87.49761 10395 ft 258 kts 334°
2026-04-20 22:30 41.67740 -87.50558 10287 ft 259 kts 337°
2026-04-20 22:30 41.69466 -87.51365 10164 ft 259 kts 337°
2026-04-20 22:30 41.71142 -87.52154 10051 ft 259 kts 337°
2026-04-20 22:31 41.72843 -87.52957 9840 ft 261 kts 337°
2026-04-20 22:31 41.74558 -87.53767 9206 ft 260 kts 337°
2026-04-20 22:31 41.76274 -87.54574 8674 ft 256 kts 338°
2026-04-20 22:31 41.77922 -87.55350 8174 ft 254 kts 338°
2026-04-20 22:32 41.79581 -87.56132 7679 ft 252 kts 338°
2026-04-20 22:32 41.81248 -87.56919 7182 ft 249 kts 338°
2026-04-20 22:32 41.82841 -87.57672 6708 ft 245 kts 338°
2026-04-20 22:32 41.84440 -87.58431 6208 ft 242 kts 338°
2026-04-20 22:33 41.86019 -87.59182 5738 ft 238 kts 338°
2026-04-20 22:33 41.87587 -87.59929 5263 ft 234 kts 339°
2026-04-20 22:33 41.89092 -87.60640 4805 ft 231 kts 339°
2026-04-20 22:33 41.90566 -87.61334 4637 ft 216 kts 339°
2026-04-20 22:34 41.91986 -87.62006 4581 ft 213 kts 339°
2026-04-20 22:34 41.93360 -87.62660 4530 ft 212 kts 338°
2026-04-20 22:34 41.94774 -87.63332 4440 ft 212 kts 339°
2026-04-20 22:34 41.96135 -87.63975 4354 ft 201 kts 339°
2026-04-20 22:35 41.97372 -87.64687 4265 ft 187 kts 326°
2026-04-20 22:35 41.98263 -87.65872 4125 ft 177 kts 304°
2026-04-20 22:35 41.98738 -87.67353 3933 ft 173 kts 285°
2026-04-20 22:35 41.98814 -87.68971 3692 ft 175 kts 274°
2026-04-20 22:36 41.98813 -87.70630 3461 ft 175 kts 274°
2026-04-20 22:36 41.98813 -87.72236 3213 ft 175 kts 274°
2026-04-20 22:36 41.98815 -87.73879 2968 ft 174 kts 274°
2026-04-20 22:36 41.98818 -87.75505 2727 ft 174 kts 274°
2026-04-20 22:37 41.98822 -87.77208 2482 ft 189 kts 274°
2026-04-20 22:37 41.98822 -87.78930 2227 ft 176 kts 274°
2026-04-20 22:37 41.98822 -87.80483 1997 ft 156 kts 274°
2026-04-20 22:37 41.98823 -87.81883 1766 ft 144 kts 274°
2026-04-20 22:38 41.98825 -87.83210 1553 ft 142 kts 273°
2026-04-20 22:38 41.98825 -87.84541 1342 ft 143 kts 272°
2026-04-20 22:38 41.98827 -87.85876 1202 ft 143 kts 272°
2026-04-20 22:38 41.98837 -87.87221 1004 ft 145 kts 272°
2026-04-20 22:39 41.98829 -87.88568 801 ft 145 kts 271°
2026-04-20 22:39 41.98827 -87.89916 682 ft 139 kts 272°
2026-04-20 22:39 41.98831 -87.91058 670 ft 101 kts 270°
2026-04-20 22:39 41.98830 -87.91713 668 ft 28 kts 268°
2026-04-20 22:40 41.98773 -87.91901 669 ft 15 kts 236°
2026-04-20 22:40 41.98740 -87.91962 668 ft 7 kts 234°
2026-04-20 22:40 41.98736 -87.91968 669 ft 0 kts 233°
2026-04-20 22:41 41.98735 -87.91971 669 ft 1 kts 233°
2026-04-20 22:41 41.98723 -87.91985 670 ft 3 kts 212°
2026-04-20 22:41 41.98693 -87.91979 669 ft 6 kts 154°
2026-04-20 22:41 41.98677 -87.91921 669 ft 8 kts 90°
2026-04-20 22:42 41.98665 -87.91836 668 ft 10 kts 133°
2026-04-20 22:42 41.98585 -87.91822 669 ft 13 kts 180°
2026-04-20 22:42 41.98483 -87.91822 669 ft 16 kts 180°
2026-04-20 22:42 41.98368 -87.91822 670 ft 17 kts 180°
2026-04-20 22:43 41.98244 -87.91823 669 ft 19 kts 180°
2026-04-20 22:43 41.98107 -87.91823 669 ft 20 kts 180°
2026-04-20 22:43 41.98003 -87.91762 669 ft 15 kts 139°
2026-04-20 22:43 41.97920 -87.91667 669 ft 17 kts 140°
2026-04-20 22:44 41.97826 -87.91563 669 ft 18 kts 140°
2026-04-20 22:44 41.97724 -87.91446 669 ft 20 kts 140°
2026-04-20 22:44 41.97631 -87.91332 669 ft 9 kts 107°
2026-04-20 22:44 41.97641 -87.91244 669 ft 10 kts 91°
2026-04-20 22:45 41.97593 -87.91166 667 ft 12 kts 142°
2026-04-20 22:45 41.97519 -87.91090 669 ft 14 kts 142°
2026-04-20 22:45 41.97435 -87.91004 668 ft 16 kts 142°
2026-04-20 22:45 41.97347 -87.90898 669 ft 18 kts 137°
2026-04-20 22:46 41.97255 -87.90769 667 ft 20 kts 128°
2026-04-20 22:46 41.97213 -87.90588 669 ft 22 kts 99°
2026-04-20 22:46 41.97205 -87.90397 668 ft 20 kts 87°
2026-04-20 22:46 41.97204 -87.90221 668 ft 15 kts 91°
2026-04-20 22:47 41.97232 -87.90158 669 ft 8 kts
2026-04-20 22:47 41.97297 -87.90160 669 ft 10 kts 360°
2026-04-20 22:47 41.97357 -87.90159 669 ft 8 kts
2026-04-20 22:47 41.97408 -87.90159 669 ft 6 kts
2026-04-20 22:48 41.97446 -87.90158 669 ft 5 kts
2026-04-20 22:48 41.97481 -87.90146 669 ft 5 kts 56°
2026-04-20 22:48 41.97483 -87.90122 669 ft 0 kts 90°
2026-04-20 22:48 41.97483 -87.90114 669 ft 2 kts 92°
2026-04-20 22:49 41.97483 -87.90111 669 ft 0 kts 92°
2026-04-20 22:49 41.97482 -87.90105 669 ft 0 kts 94°